Probability
0 0 0 0 0 0 0 0 0 0 0 0 1 4 6 6 9 17 24 26 26 24 20 20 25 28 33 40 47 50 51 52 56 59 60 60 61 62 65 67 68 69 67 64
0 0 0 0 0 0 0 0 0 0 0 0 1 3 5 6 10 18 23 25 25 23 18 15 17 19 25 35 43 49 51 52 55 58 60 61 61 62 64 65 67 67 63 60
0 0 0 0 0 0 0 0 0 0 0 0 1 3 6 9 13 17 20 23 24 20 16 14 14 14 19 26 35 43 49 52 53 55 58 58 60 62 63 64 64 62 58 55
0 0 0 0 0 0 0 0 0 0 0 0 0 3 8 13 16 15 15 19 22 20 18 18 18 17 19 21 26 35 43 46 47 49 52 54 57 59 59 60 60 57 54 50
0 0 0 0 0 0 0 0 0 0 0 0 0 2 8 14 15 14 14 18 22 20 16 17 18 17 17 18 20 26 32 36 38 40 43 48 51 52 51 51 52 52 50 48
0 0 0 0 0 0 0 0 0 0 0 0 0 1 5 10 13 14 16 20 22 17 12 13 14 14 13 13 15 18 22 26 29 32 35 39 41 42 42 43 45 47 48 47
0 0 0 0 0 0 0 0 0 0 0 0 0 1 4 8 13 18 21 24 22 13 9 11 12 11 9 9 10 12 15 19 23 27 30 32 34 35 37 39 41 43 42 40
0 0 0 0 0 0 0 0 0 0 0 0 0 2 6 11 17 22 27 28 21 12 9 10 10 8 7 8 9 11 12 15 19 23 26 28 30 32 34 34 34 34 31 28
0 0 0 0 0 0 0 0 0 0 0 0 0 2 9 15 19 23 27 25 17 11 9 8 6 4 4 6 9 11 11 12 15 18 21 22 22 24 24 24 22 22 20 17
0 0 0 0 0 0 0 0 0 0 0 0 0 1 7 12 15 17 19 19 14 10 8 6 4 3 2 4 7 8 8 9 11 13 13 13 13 13 12 12 12 13 12 11
0 0 0 0 0 0 0 0 0 0 0 0 0 0 4 8 10 11 15 17 14 10 8 6 4 3 2 2 3 3 4 6 8 9 8 7 6 5 4 4 5 6 6 6
0 0 0 0 0 0 0 0 0 0 0 0 0 1 5 9 13 15 17 16 12 10 7 5 4 3 3 1 1 1 2 3 5 5 5 4 3 2 1 1 1 2 2 2
0 0 0 0 0 0 0 0 0 0 0 0 0 1 5 12 16 19 17 13 10 8 6 4 3 3 2 1 0 0 1 3 3 3 3 1 1 0 0 0 0 0 0 0
0 0 0 0 0 0 0 0 0 0 0 0 0 1 5 10 15 16 15 11 8 7 6 4 3 2 1 0 0 0 1 2 2 1 1 0 0 0 0 0 0 0 0 0
1 1 0 0 0 0 0 0 0 0 0 0 1 3 9 13 13 13 12 9 7 6 4 4 3 2 1 0 0 0 1 1 1 0 0 0 0 0 0 0 0 0 0 0
2 1 0 0 0 0 0 0 0 0 0 0 3 8 14 16 14 11 9 8 6 4 3 3 3 2 1 0 0 0 0 0 0 0 0 0 0 0 0 0 0 0 0 0
2 2 1 0 0 0 0 0 0 0 1 3 7 10 11 12 13 11 9 8 6 3 2 2 2 1 0 0 0 0 0 0 0 0 0 0 0 0 0 0 0 0 0 0
1 2 1 0 0 0 0 1 1 1 2 4 8 8 6 9 12 12 10 8 5 2 1 1 1 0 0 0 0 0 0 0 0 0 0 0 0 0 0 0 0 0 0 0
1 2 1 0 0 0 0 1 2 1 2 5 7 6 5 7 9 10 8 6 3 1 0 0 0 0 0 0 0 0 0 0 0 0 0 0 0 0 0 0 0 0 0 0
1 1 0 0 0 0 1 2 2 1 2 5 7 5 3 4 7 8 7 5 3 2 1 0 0 0 0 0 0 0 0 0 0 0 0 0 0 0 0 0 0 0 0 0
1 0 0 0 0 0 2 3 3 2 3 5 6 5 3 5 8 8 6 5 4 2 1 0 0 0 0 0 0 0 0 0 0 0 0 0 0 0 0 0 0 0 0 0
0 0 0 0 0 0 1 2 4 4 4 5 6 6 6 7 7 5 4 3 2 1 0 0 0 0 0 0 0 0 0 0 0 0 0 0 0 0 0 0 0 0 0 0
0 0 0 0 0 0 0 1 3 4 5 6 6 7 8 6 4 2 1 1 1 0 0 0 0 0 0 0 0 0 0 0 0 0 0 0 0 0 0 0 0 0 0 0
0 1 1 0 0 0 0 0 1 2 4 6 6 6 6 4 1 0 0 0 0 0 0 0 0 0 0 0 0 0 0 0 0 0 0 0 0 0 0 0 0 0 0 0
1 2 2 1 0 0 0 0 1 2 4 4 4 4 4 3 1 0 0 0 0 0 0 0 0 0 0 0 0 0 0 0 0 0 0 0 0 0 0 0 0 0 0 0
1 2 2 1 0 0 0 0 1 2 3 3 3 2 2 2 1 0 0 0 0 0 0 0 0 0 0 0 0 0 0 0 0 0 0 0 0 0 0 0 0 0 0 0
Wind_Speed
12 12 12 13 15 14 13 13 10 9 11 11 11 11 12 12 10 10 9 8 9 10 10 10 9 8 8 7 6 6 5 4 2 2 1 0 0 0 0 0 0 0 0 1
11 14 14 13 10 11 13 11 7 7 9 7 9 11 12 11 10 9 10 11 10 10 10 9 8 7 8 7 7 6 5 4 4 3 2 1 1 1 0 0 1 1 0 1
12 9 9 8 8 10 11 10 7 5 7 8 8 10 12 11 8 7 8 10 10 10 9 8 8 8 7 7 7 6 6 5 5 4 2 1 1 1 0 0 1 0 1 1
10 8 5 8 9 10 9 8 7 7 8 7 10 9 11 11 9 6 7 9 9 9 9 8 8 7 7 7 6 6 6 6 5 4 3 3 1 1 2 1 0 0 1 1
8 7 7 9 9 7 8 7 8 8 8 9 9 10 7 12 12 10 8 9 10 9 9 8 7 7 8 7 7 6 6 6 5 5 4 3 3 2 2 1 1 0 0 1
10 7 7 8 8 7 9 8 9 7 7 12 9 9 7 9 11 12 11 10 11 10 9 8 7 7 7 7 7 6 6 6 6 6 5 4 4 3 3 2 2 1 1 1
10 10 8 7 8 7 7 7 5 5 6 9 7 8 4 11 14 15 15 13 11 10 8 7 7 8 7 7 7 7 6 6 6 6 5 5 4 4 3 3 2 2 2 2
7 7 8 7 8 7 9 11 6 4 5 6 6 5 4 9 12 14 15 14 12 10 8 8 8 7 7 7 7 7 6 6 6 6 6 5 5 4 3 4 4 3 3 3
5 6 7 8 8 9 8 9 6 6 8 4 3 1 5 10 11 12 14 13 11 10 9 8 8 7 6 6 6 6 6 6 6 6 6 6 6 5 5 5 5 4 4 3
7 7 8 8 7 9 8 8 4 6 6 4 4 4 3 7 8 10 12 12 11 11 8 8 7 7 6 6 6 6 6 6 6 6 6 5 6 6 6 6 6 5 5 5
6 6 5 6 7 7 7 7 7 7 5 4 2 0 2 5 8 9 11 12 12 11 9 8 7 6 5 6 6 6 6 6 6 6 6 6 6 6 6 6 6 5 5 5
4 4 5 7 6 5 6 6 6 6 7 6 2 1 2 4 5 9 11 12 12 10 9 8 7 6 6 7 6 6 6 6 6 6 6 6 6 6 7 7 6 6 6 6
5 3 4 6 4 5 6 6 6 5 6 6 4 1 4 7 8 10 12 13 11 10 9 8 7 6 6 6 6 6 6 6 6 6 7 7 7 7 7 7 6 6 6 7
5 6 5 6 5 5 7 8 7 6 6 6 4 1 4 6 9 11 11 11 10 9 8 8 7 6 6 5 5 5 6 6 6 6 7 7 7 6 6 6 7 6 7 8
4 7 8 7 7 7 8 9 7 7 7 6 3 1 4 5 9 11 11 10 10 8 8 8 6 5 5 5 5 6 5 6 5 6 6 6 6 6 6 6 6 6 7 8
4 7 9 9 7 7 8 8 8 6 7 7 3 5 7 10 10 10 10 10 9 8 8 7 7 6 5 5 5 5 5 5 5 6 6 6 6 6 7 6 6 7 8 8
5 6 8 8 8 7 6 6 6 4 5 6 5 6 8 10 10 9 9 9 9 9 8 7 6 6 5 5 5 5 5 5 6 6 6 6 6 6 6 7 7 8 8 8
7 7 5 7 7 5 1 4 6 5 8 8 9 9 9 10 10 9 8 9 9 9 8 7 6 6 5 5 5 5 5 5 6 6 6 6 5 6 6 7 7 7 7 7
6 5 5 5 5 3 3 7 7 4 7 9 9 9 10 11 10 8 8 9 10 9 8 7 6 6 5 5 5 5 6 6 6 6 6 5 5 6 6 7 7 6 6 6
7 6 5 6 4 2 3 7 9 3 5 6 6 6 7 7 3 6 9 11 11 10 8 7 7 7 6 5 5 6 6 6 7 6 6 5 5 5 6 6 6 5 5 6
4 5 6 7 5 1 6 8 7 2 3 3 4 4 4 3 6 12 12 12 11 10 8 8 7 6 5 5 5 6 6 7 7 6 6 6 5 5 6 5 5 5 5 6
1 2 3 4 3 2 10 8 7 5 4 6 7 8 10 13 14 14 13 12 11 10 9 8 7 6 5 5 6 7 7 7 6 6 6 6 4 5 5 5 5 5 5 5
2 3 2 3 2 3 5 6 6 5 6 7 9 11 12 13 13 13 12 11 10 10 9 7 8 7 6 5 6 8 7 6 6 6 6 5 5 5 4 4 4 3 3 3
2 3 2 3 3 5 6 7 8 9 8 9 10 11 12 13 13 13 12 10 10 9 8 7 8 8 6 6 6 6 6 6 7 7 6 5 5 5 4 3 3 4 3 3
5 4 2 2 3 5 7 7 8 9 9 9 10 10 12 13 13 12 11 10 9 8 7 7 7 8 8 7 7 7 7 6 7 6 5 5 5 5 6 6 6 6 6 4
4 4 2 2 3 3 4 5 6 7 8 9 10 11 12 12 12 12 10 9 9 9 7 7 7 7 8 7 7 7 6 6 6 5 5 4 4 4 5 6 7 10 8 10
Wind_Direction
210 227 232 229 229 242 261 254 225 193 175 205 206 179 162 179 180 160 146 133 115 102 94 81 70 69 69 67 65 62 57 48 25 29 15 52 292 297 287 206 136 163 190 252
214 229 240 243 238 253 270 268 231 171 163 209 211 185 173 179 175 160 148 133 126 116 101 94 86 77 68 61 53 58 47 36 27 21 349 334 331 300 262 37 57 37 336 274
233 242 227 241 241 245 255 257 235 186 177 214 233 208 182 173 156 148 146 131 123 118 112 104 89 77 69 62 51 43 37 32 25 6 350 344 331 283 268 135 106 25 306 266
238 246 223 235 237 238 255 258 254 214 215 217 218 228 192 173 166 167 164 139 129 120 109 97 85 71 64 58 57 52 43 34 23 9 4 354 336 328 335 343 84 71 332 307
234 220 219 228 234 230 254 253 251 243 236 250 228 241 203 180 181 183 185 147 130 119 109 98 88 78 65 53 48 46 41 34 24 15 11 351 341 344 349 3 347 4 4 331
249 226 217 230 236 217 244 240 239 254 252 248 249 246 209 178 184 177 174 148 130 123 112 104 94 83 68 54 44 38 37 30 22 17 13 4 350 344 338 346 339 343 12 0
233 222 213 223 234 221 245 245 237 244 250 257 277 252 177 162 171 163 159 147 136 130 121 109 93 77 64 51 37 31 32 26 18 15 15 10 357 346 344 356 1 1 17 23
255 226 216 217 227 230 234 247 247 245 250 261 264 270 119 126 132 140 141 138 135 129 115 102 86 74 62 52 38 30 26 26 21 18 17 16 13 5 14 22 19 19 26 27
274 259 239 232 231 236 235 246 250 269 271 265 264 157 104 102 112 124 128 131 130 117 108 99 89 77 63 52 46 35 26 25 23 22 21 25 25 20 26 31 30 28 26 28
281 263 230 218 230 236 255 270 266 258 274 271 226 209 163 150 148 143 139 137 129 116 109 93 83 75 65 57 53 43 34 31 32 33 28 31 30 30 34 39 39 35 30 33
261 277 274 240 230 242 242 256 278 288 292 298 313 23 115 168 170 165 152 142 131 126 117 103 89 77 71 63 54 49 40 41 42 40 38 36 36 38 43 46 42 38 39 44
270 283 281 273 278 292 262 262 269 286 304 312 331 286 116 130 154 146 134 128 122 117 111 104 92 79 66 56 48 49 42 45 41 42 43 42 39 46 50 50 44 42 47 50
322 280 285 295 294 307 278 269 271 279 289 296 306 185 144 127 130 120 117 119 119 116 111 104 91 75 62 56 51 47 43 48 48 49 52 48 46 52 53 53 51 49 54 55
296 275 258 247 258 264 271 280 294 288 278 290 308 162 151 142 125 117 118 121 120 117 110 101 90 77 67 60 58 57 53 52 53 55 58 54 53 53 58 59 58 56 58 61
294 279 283 272 253 250 264 272 271 276 287 294 310 72 141 134 125 128 128 128 123 118 109 100 94 83 72 67 64 60 57 57 57 60 65 65 64 62 64 67 67 63 60 63
300 292 295 289 276 269 271 278 283 291 300 310 12 85 110 117 118 124 129 133 130 125 116 110 103 92 79 72 70 69 62 63 64 66 68 71 73 70 68 66 66 70 66 63
305 301 295 288 288 271 263 287 286 308 3 359 25 87 111 114 118 127 133 132 129 125 116 110 105 95 85 74 69 75 74 74 74 74 75 74 77 77 72 72 70 71 71 70
283 302 292 289 295 278 344 359 3 30 50 55 80 93 93 100 102 108 120 125 125 121 118 113 107 101 94 89 84 82 82 81 86 85 78 70 72 80 79 77 77 74 73 74
233 264 282 278 276 289 22 12 353 358 58 52 77 93 105 110 110 105 111 117 119 118 117 115 113 111 103 96 95 95 89 85 86 84 80 71 75 85 89 84 81 78 79 78
210 223 253 277 289 289 1 337 318 322 85 56 82 108 132 151 154 127 124 119 116 116 118 118 114 110 105 99 101 98 96 92 89 86 84 78 76 83 89 91 90 87 85 85
221 232 248 269 273 66 2 333 327 4 53 58 99 121 128 98 87 119 123 118 120 121 119 118 116 113 110 111 109 103 102 100 98 96 92 86 81 84 85 86 87 90 92 91
301 297 284 288 289 33 5 6 37 44 62 81 93 95 96 99 108 119 122 124 128 126 125 123 121 116 111 115 115 104 99 102 104 101 99 96 93 93 92 85 84 89 96 99
18 14 351 32 55 61 39 52 57 55 68 79 93 101 111 116 122 125 126 128 130 128 126 126 124 121 115 114 115 108 107 109 110 105 100 100 100 85 83 89 97 98 100 102
8 3 38 64 67 64 54 55 59 64 73 84 98 111 116 121 127 129 130 131 130 128 131 129 127 123 120 117 112 112 118 120 116 114 113 110 106 95 84 67 65 61 48 56
328 349 23 80 87 83 60 57 67 75 79 90 101 110 118 124 129 132 134 134 132 132 130 129 127 123 122 117 115 119 121 118 114 117 120 121 113 103 85 69 52 63 51 48
11 11 12 47 48 60 73 68 75 88 92 101 109 113 119 126 131 133 131 132 132 132 130 127 126 124 126 125 122 120 121 120 117 120 128 128 124 124 123 111 88 55 68 68